MLE0469 SBKP-SBJP

Flight info

Callsign MLE0469
Flight time N/A
Altitude 33000
Route EGBEN1A KONVI UZ23 ANBEX DCT
Aircraft A320/M-VGDW/C

Departure

Time 2026-04-28 08:24
Airport Viracopos International Airport (SBKP)

Arrival

Time N/A
Airport Presidente Castro Pinto International Airport (SBJP)
Time Latitude Longitude Altitude Speed Heading
2026-04-28 07:24 -23.00467 -47.14966 2162 ft 0 kts 37°
2026-04-28 08:13 -23.00483 -47.14979 2154 ft 4 kts 35°
2026-04-28 08:13 -23.00506 -47.14995 2160 ft 4 kts 30°
2026-04-28 08:13 -23.00530 -47.15008 2160 ft 4 kts 18°
2026-04-28 08:14 -23.00554 -47.15011 2160 ft 4 kts 331°
2026-04-28 08:14 -23.00561 -47.15007 2154 ft 0 kts 307°
2026-04-28 08:16 -23.00542 -47.15035 2156 ft 11 kts 307°
2026-04-28 08:17 -23.00500 -47.15095 2161 ft 9 kts 307°
2026-04-28 08:17 -23.00466 -47.15144 2159 ft 7 kts 307°
2026-04-28 08:17 -23.00439 -47.15183 2158 ft 6 kts 307°
2026-04-28 08:17 -23.00417 -47.15192 2162 ft 3 kts 14°
2026-04-28 08:18 -23.00381 -47.15173 2156 ft 8 kts 36°
2026-04-28 08:18 -23.00340 -47.15139 2159 ft 6 kts 36°
2026-04-28 08:18 -23.00309 -47.15114 2153 ft 5 kts 37°
2026-04-28 08:18 -23.00287 -47.15097 2157 ft 3 kts 38°
2026-04-28 08:19 -23.00263 -47.15076 2162 ft 7 kts 37°
2026-04-28 08:19 -23.00210 -47.15029 2159 ft 13 kts 39°
2026-04-28 08:19 -23.00140 -47.14970 2158 ft 12 kts 38°
2026-04-28 08:19 -23.00075 -47.14916 2161 ft 11 kts 36°
2026-04-28 08:20 -23.00025 -47.14868 2157 ft 9 kts 54°
2026-04-28 08:20 -22.99979 -47.14810 2160 ft 12 kts 40°
2026-04-28 08:20 -22.99933 -47.14771 2157 ft 0 kts 37°
2026-04-28 08:22 -22.99908 -47.14741 2155 ft 14 kts 56°
2026-04-28 08:23 -22.99897 -47.14631 2161 ft 16 kts 109°
2026-04-28 08:23 -22.99967 -47.14527 2156 ft 23 kts 127°
2026-04-28 08:23 -23.00225 -47.14163 2161 ft 100 kts 128°
2026-04-28 08:23 -23.00789 -47.13376 2160 ft 163 kts 128°
2026-04-28 08:24 -23.01574 -47.12291 2502 ft 192 kts 128°
2026-04-28 08:24 -23.02423 -47.11124 3317 ft 197 kts 124°
2026-04-28 08:24 -23.02927 -47.09802 4101 ft 186 kts 95°
2026-04-28 08:24 -23.02713 -47.08391 4457 ft 202 kts 71°
2026-04-28 08:25 -23.02239 -47.06861 4731 ft 225 kts 71°
2026-04-28 08:25 -23.01713 -47.05164 5012 ft 249 kts 70°
2026-04-28 08:25 -23.01120 -47.03303 5337 ft 270 kts 66°
2026-04-28 08:26 -23.00072 -47.01593 5956 ft 277 kts 42°